TimeCST,TemperatureF,Dew PointF,Humidity,Sea Level PressureIn,VisibilityMPH,Wind Direction,Wind SpeedMPH,Gust SpeedMPH,PrecipitationIn,Events,Conditions,WindDirDegrees,DateUTC
12:11 AM,32.0,26.6,80,30.04,10.0,ENE,13.8,20.7,N/A,,Clear,60,2012-11-30 06:11:00
12:31 AM,30.2,26.6,86,30.04,10.0,NE,10.4,21.9,N/A,,Clear,50,2012-11-30 06:31:00
12:50 AM,30.2,26.6,86,30.04,10.0,ENE,13.8,17.3,N/A,,Clear,60,2012-11-30 06:50:00
1:11 AM,30.2,26.6,86,30.05,10.0,ENE,11.5,-,N/A,,Clear,60,2012-11-30 07:11:00
1:31 AM,30.2,26.6,86,30.05,10.0,ENE,8.1,-,N/A,,Clear,70,2012-11-30 07:31:00
1:50 AM,30.2,26.6,86,30.05,10.0,ENE,10.4,-,N/A,,Clear,70,2012-11-30 07:50:00
2:11 AM,30.2,26.6,86,30.06,10.0,ENE,9.2,-,N/A,,Clear,60,2012-11-30 08:11:00
2:30 AM,30.2,26.6,86,30.06,10.0,NE,8.1,-,N/A,,Clear,50,2012-11-30 08:30:00
3:11 AM,28.4,24.8,86,30.08,10.0,NE,8.1,-,N/A,,Clear,40,2012-11-30 09:11:00
3:31 AM,28.4,24.8,86,30.07,10.0,NE,9.2,-,N/A,,Clear,50,2012-11-30 09:31:00
3:51 AM,28.4,24.8,86,30.06,10.0,NE,8.1,-,N/A,,Clear,50,2012-11-30 09:51:00
4:11 AM,28.4,24.8,86,30.07,10.0,ENE,9.2,-,N/A,,Clear,60,2012-11-30 10:11:00
4:31 AM,28.4,24.8,86,30.07,10.0,ENE,8.1,-,N/A,,Clear,60,2012-11-30 10:31:00
4:51 AM,26.6,23.0,86,30.07,10.0,NE,6.9,-,N/A,,Clear,50,2012-11-30 10:51:00
5:11 AM,26.6,23.0,86,30.08,10.0,NE,5.8,-,N/A,,Clear,50,2012-11-30 11:11:00
5:31 AM,26.6,23.0,86,30.09,10.0,NE,5.8,-,N/A,,Clear,50,2012-11-30 11:31:00
5:51 AM,26.6,23.0,86,30.09,7.0,ENE,5.8,-,N/A,,Clear,60,2012-11-30 11:51:00
6:11 AM,23.0,21.2,93,30.09,7.0,ENE,6.9,-,N/A,,Clear,60,2012-11-30 12:11:00
6:31 AM,23.0,21.2,93,30.10,7.0,NE,8.1,-,N/A,,Clear,50,2012-11-30 12:31:00
6:51 AM,23.0,21.2,93,30.10,7.0,ENE,6.9,-,N/A,,Clear,60,2012-11-30 12:51:00
7:11 AM,23.0,21.2,93,30.10,7.0,ENE,6.9,-,N/A,,Clear,60,2012-11-30 13:11:00
7:31 AM,23.0,21.2,93,30.10,5.0,ENE,6.9,-,N/A,,Clear,60,2012-11-30 13:31:00
7:51 AM,24.8,21.2,86,30.11,5.0,ENE,4.6,-,N/A,,Clear,70,2012-11-30 13:51:00
8:11 AM,26.6,23.0,86,30.11,5.0,ENE,6.9,-,N/A,,Clear,60,2012-11-30 14:11:00
8:31 AM,26.6,23.0,86,30.13,5.0,ENE,3.5,-,N/A,,Scattered Clouds,60,2012-11-30 14:31:00
8:51 AM,28.4,26.6,93,30.13,5.0,ENE,5.8,-,N/A,,Overcast,60,2012-11-30 14:51:00
9:11 AM,30.2,28.4,93,30.12,5.0,East,6.9,-,N/A,,Overcast,80,2012-11-30 15:11:00
9:31 AM,30.2,28.4,93,30.13,5.0,East,6.9,-,N/A,,Overcast,100,2012-11-30 15:31:00
9:51 AM,32.0,28.4,87,30.12,4.0,East,9.2,-,N/A,,Overcast,100,2012-11-30 15:51:00
10:10 AM,32.0,30.2,93,30.13,4.0,East,8.1,-,N/A,,Overcast,100,2012-11-30 16:10:00
10:30 AM,33.8,32.0,93,30.14,4.0,East,9.2,-,N/A,,Overcast,100,2012-11-30 16:30:00
10:51 AM,33.8,32.0,93,30.14,4.0,SE,8.1,-,N/A,,Overcast,130,2012-11-30 16:51:00
11:11 AM,33.8,30.2,87,30.14,4.0,ESE,5.8,-,N/A,,Haze,110,2012-11-30 17:11:00
11:30 AM,33.8,30.2,87,30.13,4.0,ESE,8.1,-,N/A,,Haze,110,2012-11-30 17:30:00
11:51 AM,33.8,30.2,87,30.13,4.0,ESE,6.9,-,N/A,,Haze,110,2012-11-30 17:51:00
12:11 PM,33.8,30.2,87,30.11,4.0,ESE,5.8,-,N/A,,Haze,120,2012-11-30 18:11:00
12:31 PM,33.8,30.2,87,30.10,4.0,ESE,6.9,-,N/A,,Haze,120,2012-11-30 18:31:00
12:51 PM,33.8,30.2,87,30.11,4.0,ESE,4.6,-,N/A,,Haze,120,2012-11-30 18:51:00
1:11 PM,35.6,30.2,81,30.08,4.0,ESE,8.1,-,N/A,,Haze,120,2012-11-30 19:11:00
1:31 PM,35.6,32.0,87,30.08,4.0,East,8.1,-,N/A,,Haze,100,2012-11-30 19:31:00
1:51 PM,35.6,32.0,87,30.07,4.0,ESE,8.1,-,N/A,,Haze,120,2012-11-30 19:51:00
2:11 PM,35.6,32.0,87,30.07,4.0,SE,9.2,-,N/A,,Haze,130,2012-11-30 20:11:00
2:31 PM,35.6,32.0,87,30.06,4.0,ESE,10.4,-,N/A,,Haze,110,2012-11-30 20:31:00
2:51 PM,35.6,32.0,87,30.06,4.0,ESE,9.2,-,N/A,,Haze,120,2012-11-30 20:51:00
3:12 PM,35.6,32.0,87,30.06,5.0,ESE,8.1,-,N/A,,Haze,120,2012-11-30 21:12:00
3:31 PM,35.6,32.0,87,30.07,5.0,East,8.1,-,N/A,,Haze,100,2012-11-30 21:31:00
3:51 PM,35.6,32.0,87,30.07,5.0,East,9.2,-,N/A,,Haze,100,2012-11-30 21:51:00
4:11 PM,35.6,32.0,87,30.07,5.0,ESE,6.9,-,N/A,,Haze,110,2012-11-30 22:11:00
4:31 PM,35.6,32.0,87,30.06,5.0,ESE,8.1,-,N/A,,Haze,110,2012-11-30 22:31:00
4:50 PM,57.2,46.4,67,30.19,10.0,South,5.8,-,N/A,,Scattered Clouds,170,2012-11-30 22:50:00
4:51 PM,35.6,32.0,87,30.06,5.0,ESE,9.2,-,N/A,,Haze,110,2012-11-30 22:51:00
5:11 PM,35.6,32.0,87,30.05,7.0,ESE,9.2,-,N/A,,Overcast,120,2012-11-30 23:11:00
5:31 PM,35.6,32.0,87,30.04,7.0,ESE,9.2,-,N/A,,Overcast,120,2012-11-30 23:31:00
6:11 PM,35.6,32.0,87,30.04,7.0,SE,10.4,-,N/A,,Overcast,130,2012-12-01 00:11:00
6:32 PM,35.6,32.0,87,30.03,7.0,SE,15.0,20.7,N/A,,Overcast,130,2012-12-01 00:32:00
6:50 PM,35.6,32.0,87,30.04,7.0,SE,11.5,16.1,N/A,,Overcast,140,2012-12-01 00:50:00
7:11 PM,33.8,30.2,87,30.01,5.0,SE,12.7,-,N/A,,Haze,130,2012-12-01 01:11:00
7:31 PM,33.8,32.0,93,30.00,5.0,SE,15.0,18.4,N/A,,Clear,130,2012-12-01 01:31:00
8:11 PM,33.8,32.0,93,30.00,5.0,SE,11.5,-,N/A,,Scattered Clouds,130,2012-12-01 02:11:00
8:31 PM,33.8,32.0,93,30.00,5.0,SE,13.8,-,N/A,,Mostly Cloudy,130,2012-12-01 02:31:00
8:51 PM,33.8,32.0,93,29.99,4.0,SE,12.7,-,N/A,,Mostly Cloudy,130,2012-12-01 02:51:00
9:10 PM,33.8,32.0,93,29.99,4.0,SE,15.0,-,N/A,,Clear,130,2012-12-01 03:10:00
9:31 PM,33.8,32.0,93,29.99,4.0,SE,13.8,19.6,N/A,,Mostly Cloudy,130,2012-12-01 03:31:00
9:51 PM,33.8,32.0,93,29.98,4.0,SE,12.7,-,N/A,,Overcast,140,2012-12-01 03:51:00
10:11 PM,33.8,32.0,93,29.98,3.0,SE,15.0,20.7,N/A,,Overcast,140,2012-12-01 04:11:00
10:31 PM,33.8,32.0,93,29.98,3.0,SE,15.0,21.9,N/A,,Overcast,140,2012-12-01 04:31:00
10:51 PM,33.8,32.0,93,29.98,3.0,SE,16.1,20.7,N/A,,Overcast,140,2012-12-01 04:51:00
11:11 PM,33.8,32.0,93,29.99,3.0,SSE,15.0,-,N/A,,Overcast,150,2012-12-01 05:11:00
11:31 PM,33.8,32.0,93,29.98,3.0,SE,13.8,-,N/A,,Overcast,140,2012-12-01 05:31:00
11:51 PM,33.8,32.0,93,29.97,3.0,SSE,13.8,-,N/A,,Overcast,150,2012-12-01 05:51:00